QPF
0.09 0.10 0.11 0.09 0.08 0.09 0.11 0.07 0.07 0.06 0.07 0.08 0.08 0.08 0.07 0.07 0.13 0.22 0.21 0.28 0.31 0.33 0.38 0.37 0.27 0.19 0.17 0.16 0.18 0.19 0.14 0.09 0.08 0.10 0.10 0.09 0.09 0.09 0.08 0.07 0.04 0.03 0.05
0.10 0.10 0.11 0.07 0.05 0.07 0.07 0.05 0.05 0.05 0.06 0.07 0.08 0.08 0.07 0.08 0.14 0.21 0.30 0.38 0.37 0.42 0.42 0.33 0.26 0.19 0.17 0.16 0.16 0.12 0.09 0.07 0.08 0.10 0.10 0.09 0.10 0.11 0.09 0.06 0.04 0.03 0.05
0.09 0.11 0.12 0.07 0.06 0.08 0.06 0.04 0.05 0.05 0.05 0.06 0.09 0.10 0.09 0.09 0.14 0.22 0.30 0.35 0.37 0.41 0.36 0.31 0.27 0.19 0.16 0.14 0.10 0.08 0.08 0.08 0.09 0.10 0.10 0.07 0.09 0.10 0.08 0.08 0.06 0.03 0.05
0.18 0.21 0.17 0.10 0.08 0.07 0.05 0.05 0.06 0.06 0.06 0.07 0.09 0.10 0.11 0.11 0.13 0.18 0.21 0.23 0.28 0.32 0.29 0.25 0.19 0.13 0.10 0.08 0.08 0.07 0.08 0.08 0.08 0.07 0.06 0.08 0.10 0.10 0.07 0.07 0.07 0.04 0.05
0.20 0.26 0.25 0.12 0.07 0.05 0.07 0.11 0.10 0.09 0.07 0.06 0.07 0.11 0.11 0.11 0.12 0.13 0.15 0.17 0.18 0.19 0.15 0.12 0.10 0.08 0.07 0.06 0.06 0.05 0.06 0.07 0.07 0.03 0.05 0.08 0.08 0.13 0.08 0.06 0.06 0.04 0.05
0.18 0.23 0.25 0.12 0.05 0.07 0.16 0.14 0.09 0.07 0.06 0.06 0.06 0.10 0.13 0.12 0.14 0.12 0.13 0.13 0.12 0.12 0.10 0.09 0.09 0.09 0.08 0.05 0.05 0.06 0.05 0.06 0.04 0.01 0.02 0.02 0.03 0.08 0.07 0.07 0.06 0.06 0.08
0.21 0.19 0.15 0.11 0.05 0.07 0.13 0.12 0.08 0.05 0.04 0.07 0.09 0.11 0.16 0.20 0.18 0.10 0.08 0.08 0.08 0.09 0.08 0.08 0.09 0.10 0.08 0.07 0.06 0.05 0.06 0.06 0.02 0.01 0.01 0.02 0.03 0.04 0.05 0.06 0.07 0.12 0.14
0.12 0.09 0.07 0.08 0.04 0.05 0.07 0.07 0.07 0.05 0.05 0.13 0.19 0.21 0.25 0.25 0.17 0.08 0.08 0.08 0.07 0.09 0.08 0.06 0.10 0.10 0.07 0.07 0.07 0.06 0.07 0.05 0.01 0.01 0.01 0.01 0.03 0.03 0.05 0.05 0.10 0.25 0.19
0.03 0.03 0.04 0.06 0.04 0.04 0.06 0.07 0.11 0.10 0.09 0.12 0.19 0.23 0.21 0.18 0.13 0.08 0.09 0.08 0.06 0.06 0.07 0.07 0.09 0.07 0.05 0.05 0.05 0.06 0.07 0.05 0.02 0.01 0.00 0.01 0.01 0.02 0.03 0.08 0.17 0.18 0.12
0.03 0.03 0.03 0.04 0.02 0.03 0.05 0.08 0.11 0.16 0.16 0.16 0.19 0.19 0.15 0.13 0.10 0.10 0.09 0.08 0.08 0.06 0.07 0.08 0.09 0.05 0.04 0.04 0.05 0.05 0.06 0.05 0.02 0.01 0.01 0.01 0.01 0.01 0.02 0.05 0.09 0.11 0.08
0.04 0.04 0.03 0.02 0.01 0.01 0.03 0.06 0.08 0.10 0.16 0.19 0.19 0.17 0.13 0.09 0.12 0.14 0.10 0.10 0.09 0.08 0.07 0.08 0.08 0.05 0.05 0.05 0.07 0.06 0.05 0.03 0.02 0.02 0.03 0.03 0.02 0.02 0.02 0.02 0.03 0.04 0.04
0.03 0.02 0.02 0.02 0.01 0.01 0.02 0.04 0.05 0.07 0.09 0.10 0.12 0.12 0.09 0.09 0.15 0.20 0.18 0.13 0.10 0.09 0.07 0.08 0.08 0.07 0.05 0.05 0.06 0.05 0.02 0.02 0.02 0.01 0.03 0.04 0.04 0.03 0.02 0.02 0.03 0.04 0.04
0.03 0.03 0.02 0.02 0.02 0.01 0.01 0.01 0.02 0.03 0.05 0.06 0.07 0.06 0.05 0.08 0.13 0.17 0.18 0.16 0.13 0.10 0.08 0.09 0.07 0.05 0.04 0.04 0.04 0.03 0.02 0.02 0.01 0.01 0.03 0.04 0.05 0.04 0.04 0.03 0.04 0.05 0.06
0.03 0.03 0.04 0.02 0.01 0.01 0.01 0.00 0.01 0.01 0.02 0.03 0.04 0.04 0.04 0.09 0.12 0.10 0.11 0.10 0.09 0.08 0.06 0.06 0.05 0.04 0.04 0.03 0.02 0.03 0.04 0.04 0.03 0.02 0.02 0.03 0.03 0.04 0.04 0.04 0.04 0.04 0.05
0.02 0.02 0.02 0.02 0.01 0.01 0.01 0.00 0.00 0.01 0.01 0.01 0.01 0.01 0.02 0.05 0.07 0.08 0.07 0.05 0.06 0.07 0.05 0.03 0.03 0.03 0.03 0.03 0.03 0.04 0.04 0.04 0.03 0.03 0.03 0.03 0.04 0.04 0.05 0.04 0.04 0.04 0.05
0.01 0.01 0.01 0.01 0.01 0.01 0.01 0.01 0.01 0.01 0.01 0.01 0.01 0.01 0.01 0.01 0.03 0.07 0.06 0.06 0.06 0.06 0.06 0.04 0.04 0.05 0.04 0.04 0.04 0.04 0.05 0.04 0.03 0.04 0.04 0.04 0.05 0.05 0.04 0.04 0.05 0.07 0.05
0.01 0.01 0.01 0.01 0.02 0.02 0.02 0.02 0.01 0.01 0.01 0.01 0.02 0.01 0.01 0.01 0.02 0.05 0.06 0.04 0.05 0.05 0.06 0.05 0.04 0.05 0.05 0.05 0.05 0.05 0.05 0.04 0.03 0.03 0.04 0.04 0.03 0.03 0.03 0.04 0.07 0.09 0.06
0.01 0.01 0.01 0.01 0.02 0.02 0.02 0.03 0.01 0.01 0.01 0.01 0.02 0.02 0.01 0.02 0.02 0.03 0.05 0.05 0.04 0.05 0.05 0.06 0.06 0.06 0.06 0.05 0.04 0.04 0.03 0.03 0.04 0.03 0.03 0.04 0.04 0.05 0.05 0.06 0.11 0.11 0.08
0.01 0.02 0.01 0.01 0.02 0.03 0.03 0.03 0.01 0.02 0.02 0.01 0.02 0.02 0.02 0.02 0.02 0.03 0.04 0.03 0.02 0.02 0.03 0.04 0.05 0.05 0.04 0.03 0.04 0.03 0.02 0.02 0.03 0.03 0.02 0.03 0.05 0.05 0.06 0.09 0.13 0.12 0.11
0.02 0.03 0.02 0.02 0.03 0.06 0.07 0.04 0.02 0.02 0.02 0.02 0.01 0.01 0.02 0.03 0.03 0.03 0.03 0.03 0.02 0.01 0.02 0.02 0.02 0.03 0.03 0.03 0.03 0.02 0.02 0.02 0.03 0.04 0.04 0.04 0.04 0.04 0.04 0.06 0.10 0.10 0.11
0.01 0.01 0.01 0.02 0.05 0.08 0.08 0.04 0.02 0.02 0.01 0.01 0.01 0.01 0.03 0.04 0.04 0.04 0.03 0.03 0.02 0.02 0.02 0.02 0.02 0.02 0.03 0.02 0.02 0.02 0.01 0.01 0.03 0.05 0.05 0.04 0.03 0.03 0.04 0.05 0.07 0.11 0.11
0.00 0.01 0.01 0.01 0.02 0.03 0.04 0.04 0.02 0.01 0.01 0.01 0.01 0.01 0.02 0.04 0.04 0.04 0.04 0.05 0.03 0.02 0.01 0.02 0.03 0.03 0.02 0.02 0.02 0.02 0.02 0.02 0.02 0.04 0.05 0.03 0.03 0.04 0.05 0.05 0.07 0.10 0.08
0.00 0.01 0.01 0.02 0.01 0.02 0.02 0.02 0.03 0.02 0.02 0.02 0.03 0.04 0.04 0.05 0.05 0.06 0.06 0.05 0.04 0.02 0.02 0.03 0.03 0.02 0.02 0.02 0.01 0.01 0.01 0.01 0.02 0.03 0.04 0.04 0.04 0.05 0.04 0.04 0.05 0.06 0.05
0.00 0.00 0.00 0.00 0.00 0.01 0.01 0.01 0.01 0.02 0.03 0.03 0.05 0.07 0.07 0.07 0.06 0.07 0.05 0.04 0.04 0.03 0.03 0.03 0.03 0.02 0.02 0.02 0.01 0.01 0.01 0.01 0.01 0.03 0.04 0.04 0.04 0.03 0.04 0.04 0.04 0.05 0.04
0.00 0.00 0.00 0.00 0.00 0.00 0.00 0.01 0.01 0.02 0.04 0.05 0.05 0.07 0.08 0.06 0.05 0.06 0.05 0.04 0.04 0.04 0.04 0.03 0.01 0.02 0.02 0.03 0.02 0.02 0.02 0.02 0.01 0.01 0.02 0.02 0.02 0.02 0.02 0.02 0.03 0.04 0.03
0.00 0.00 0.00 0.00 0.00 0.00 0.00 0.01 0.01 0.01 0.03 0.04 0.04 0.05 0.07 0.07 0.06 0.05 0.04 0.04 0.04 0.04 0.04 0.03 0.02 0.03 0.03 0.02 0.03 0.03 0.02 0.02 0.02 0.01 0.01 0.02 0.02 0.02 0.02 0.01 0.01 0.01 0.02
MSLP
1009.60 1008.79 1008.16 1007.73 1007.48 1007.37 1007.31 1007.24 1007.10 1006.87 1006.57 1006.26 1005.99 1005.83 1005.80 1005.93 1006.19 1006.54 1006.95 1007.35 1007.74 1008.10 1008.44 1008.79 1009.17 1009.60 1010.08 1010.58 1011.07 1011.54 1011.95 1012.29 1012.58 1012.83 1013.05 1013.27 1013.49 1013.72 1013.94 1014.16 1014.36 1014.56 1014.75
1009.79 1009.09 1008.53 1008.14 1007.91 1007.78 1007.70 1007.62 1007.48 1007.29 1007.07 1006.85 1006.70 1006.65 1006.71 1006.90 1007.17 1007.50 1007.83 1008.14 1008.43 1008.70 1008.97 1009.27 1009.61 1010.02 1010.47 1010.94 1011.40 1011.83 1012.21 1012.53 1012.82 1013.07 1013.31 1013.54 1013.78 1014.01 1014.24 1014.44 1014.63 1014.82 1015.01
1009.94 1009.35 1008.87 1008.52 1008.29 1008.16 1008.06 1007.97 1007.84 1007.69 1007.53 1007.41 1007.36 1007.40 1007.54 1007.76 1008.03 1008.32 1008.58 1008.81 1009.01 1009.21 1009.42 1009.69 1010.01 1010.39 1010.82 1011.27 1011.70 1012.10 1012.46 1012.77 1013.05 1013.31 1013.56 1013.82 1014.07 1014.31 1014.53 1014.73 1014.91 1015.09 1015.28
1010.03 1009.55 1009.15 1008.86 1008.66 1008.53 1008.43 1008.33 1008.23 1008.11 1008.02 1007.97 1008.00 1008.11 1008.29 1008.53 1008.78 1009.02 1009.22 1009.39 1009.53 1009.68 1009.87 1010.11 1010.43 1010.80 1011.22 1011.64 1012.04 1012.41 1012.74 1013.04 1013.31 1013.58 1013.85 1014.13 1014.39 1014.63 1014.85 1015.03 1015.20 1015.38 1015.57
1010.08 1009.72 1009.42 1009.19 1009.03 1008.92 1008.84 1008.76 1008.67 1008.59 1008.54 1008.55 1008.63 1008.77 1008.97 1009.21 1009.44 1009.64 1009.80 1009.92 1010.04 1010.18 1010.36 1010.61 1010.93 1011.30 1011.70 1012.09 1012.46 1012.79 1013.09 1013.37 1013.63 1013.91 1014.19 1014.46 1014.73 1014.97 1015.17 1015.35 1015.51 1015.67 1015.86
1010.16 1009.91 1009.70 1009.55 1009.45 1009.38 1009.32 1009.25 1009.19 1009.13 1009.11 1009.14 1009.24 1009.40 1009.61 1009.82 1010.03 1010.20 1010.34 1010.46 1010.58 1010.73 1010.94 1011.21 1011.53 1011.90 1012.27 1012.63 1012.95 1013.24 1013.50 1013.75 1014.01 1014.27 1014.55 1014.83 1015.09 1015.31 1015.51 1015.66 1015.81 1015.96 1016.15
1010.29 1010.14 1010.03 1009.96 1009.92 1009.89 1009.86 1009.81 1009.76 1009.72 1009.70 1009.75 1009.85 1010.00 1010.19 1010.39 1010.58 1010.75 1010.88 1011.01 1011.16 1011.34 1011.57 1011.86 1012.19 1012.55 1012.89 1013.21 1013.48 1013.72 1013.94 1014.15 1014.38 1014.64 1014.91 1015.18 1015.43 1015.64 1015.81 1015.95 1016.08 1016.22 1016.40
1010.50 1010.44 1010.42 1010.42 1010.44 1010.45 1010.44 1010.41 1010.36 1010.31 1010.30 1010.33 1010.42 1010.56 1010.74 1010.92 1011.10 1011.27 1011.42 1011.57 1011.74 1011.95 1012.21 1012.51 1012.84 1013.17 1013.48 1013.74 1013.96 1014.15 1014.33 1014.51 1014.71 1014.95 1015.21 1015.47 1015.71 1015.91 1016.07 1016.19 1016.29 1016.42 1016.59
1010.79 1010.80 1010.85 1010.91 1010.97 1011.01 1011.01 1010.98 1010.92 1010.87 1010.84 1010.87 1010.95 1011.08 1011.24 1011.42 1011.60 1011.76 1011.92 1012.09 1012.28 1012.51 1012.78 1013.07 1013.38 1013.68 1013.94 1014.16 1014.33 1014.47 1014.61 1014.76 1014.95 1015.18 1015.42 1015.68 1015.91 1016.09 1016.24 1016.35 1016.44 1016.56 1016.71
1011.12 1011.19 1011.28 1011.38 1011.46 1011.51 1011.51 1011.48 1011.41 1011.35 1011.32 1011.34 1011.41 1011.54 1011.70 1011.87 1012.05 1012.22 1012.38 1012.55 1012.75 1012.97 1013.22 1013.50 1013.77 1014.03 1014.24 1014.41 1014.54 1014.64 1014.75 1014.89 1015.06 1015.28 1015.52 1015.77 1015.99 1016.18 1016.32 1016.42 1016.51 1016.62 1016.76
1011.44 1011.53 1011.65 1011.76 1011.86 1011.90 1011.90 1011.86 1011.79 1011.74 1011.71 1011.74 1011.82 1011.95 1012.12 1012.30 1012.47 1012.64 1012.79 1012.95 1013.12 1013.32 1013.53 1013.76 1013.99 1014.20 1014.37 1014.50 1014.60 1014.68 1014.77 1014.89 1015.05 1015.26 1015.50 1015.74 1015.96 1016.15 1016.30 1016.41 1016.50 1016.61 1016.76
1011.67 1011.78 1011.91 1012.03 1012.12 1012.16 1012.15 1012.11 1012.06 1012.01 1012.01 1012.06 1012.16 1012.32 1012.49 1012.68 1012.85 1013.01 1013.14 1013.27 1013.41 1013.56 1013.72 1013.90 1014.08 1014.25 1014.38 1014.48 1014.55 1014.62 1014.69 1014.80 1014.95 1015.14 1015.37 1015.60 1015.83 1016.02 1016.18 1016.31 1016.43 1016.55 1016.70
1011.76 1011.88 1012.02 1012.14 1012.23 1012.27 1012.27 1012.24 1012.21 1012.20 1012.23 1012.31 1012.45 1012.63 1012.82 1013.01 1013.18 1013.32 1013.44 1013.53 1013.62 1013.72 1013.84 1013.97 1014.10 1014.22 1014.33 1014.41 1014.46 1014.52 1014.58 1014.66 1014.79 1014.95 1015.15 1015.36 1015.58 1015.78 1015.96 1016.12 1016.27 1016.42 1016.60
1011.69 1011.84 1011.98 1012.11 1012.20 1012.25 1012.27 1012.27 1012.27 1012.30 1012.38 1012.50 1012.67 1012.87 1013.08 1013.28 1013.45 1013.57 1013.66 1013.73 1013.78 1013.84 1013.92 1014.01 1014.11 1014.20 1014.29 1014.35 1014.39 1014.43 1014.46 1014.51 1014.59 1014.70 1014.86 1015.04 1015.23 1015.44 1015.64 1015.84 1016.03 1016.23 1016.43
1011.48 1011.65 1011.81 1011.95 1012.06 1012.14 1012.19 1012.23 1012.28 1012.36 1012.47 1012.63 1012.82 1013.04 1013.25 1013.45 1013.61 1013.73 1013.80 1013.85 1013.89 1013.93 1013.98 1014.05 1014.13 1014.21 1014.29 1014.34 1014.37 1014.37 1014.37 1014.36 1014.37 1014.42 1014.50 1014.62 1014.79 1014.98 1015.20 1015.44 1015.68 1015.93 1016.18
1011.16 1011.36 1011.54 1011.71 1011.86 1011.97 1012.07 1012.16 1012.26 1012.37 1012.52 1012.69 1012.88 1013.09 1013.29 1013.48 1013.63 1013.75 1013.83 1013.88 1013.92 1013.97 1014.02 1014.09 1014.17 1014.26 1014.33 1014.37 1014.38 1014.35 1014.29 1014.21 1014.14 1014.09 1014.09 1014.14 1014.25 1014.42 1014.65 1014.91 1015.20 1015.51 1015.81
1010.79 1011.02 1011.24 1011.45 1011.63 1011.79 1011.94 1012.08 1012.22 1012.36 1012.51 1012.67 1012.85 1013.02 1013.19 1013.35 1013.49 1013.61 1013.71 1013.79 1013.86 1013.93 1014.01 1014.10 1014.20 1014.29 1014.36 1014.40 1014.38 1014.32 1014.20 1014.05 1013.89 1013.74 1013.64 1013.61 1013.65 1013.79 1014.00 1014.29 1014.61 1014.96 1015.31
1010.42 1010.69 1010.94 1011.18 1011.41 1011.62 1011.82 1012.01 1012.17 1012.32 1012.46 1012.59 1012.71 1012.83 1012.95 1013.08 1013.20 1013.33 1013.45 1013.56 1013.68 1013.80 1013.92 1014.04 1014.17 1014.27 1014.35 1014.38 1014.35 1014.26 1014.10 1013.88 1013.64 1013.40 1013.21 1013.08 1013.06 1013.14 1013.32 1013.60 1013.94 1014.32 1014.70
1010.11 1010.40 1010.68 1010.95 1011.22 1011.47 1011.72 1011.94 1012.12 1012.27 1012.37 1012.44 1012.50 1012.55 1012.61 1012.69 1012.80 1012.93 1013.08 1013.24 1013.41 1013.57 1013.74 1013.90 1014.05 1014.17 1014.26 1014.29 1014.26 1014.15 1013.97 1013.72 1013.42 1013.11 1012.84 1012.64 1012.53 1012.55 1012.68 1012.92 1013.24 1013.62 1014.00
1009.86 1010.17 1010.46 1010.75 1011.04 1011.34 1011.62 1011.87 1012.06 1012.20 1012.27 1012.28 1012.26 1012.24 1012.23 1012.27 1012.35 1012.49 1012.67 1012.87 1013.08 1013.29 1013.50 1013.68 1013.85 1013.98 1014.08 1014.13 1014.11 1014.02 1013.84 1013.58 1013.27 1012.93 1012.60 1012.33 1012.16 1012.09 1012.15 1012.33 1012.60 1012.93 1013.28
1009.68 1009.98 1010.27 1010.57 1010.88 1011.20 1011.52 1011.79 1012.00 1012.13 1012.16 1012.13 1012.04 1011.96 1011.90 1011.89 1011.96 1012.10 1012.30 1012.54 1012.78 1013.02 1013.24 1013.44 1013.61 1013.75 1013.86 1013.93 1013.94 1013.88 1013.75 1013.52 1013.23 1012.89 1012.55 1012.23 1011.99 1011.84 1011.81 1011.90 1012.07 1012.32 1012.60
1009.55 1009.82 1010.10 1010.39 1010.72 1011.07 1011.41 1011.72 1011.95 1012.07 1012.10 1012.03 1011.90 1011.77 1011.68 1011.65 1011.71 1011.85 1012.07 1012.32 1012.58 1012.83 1013.05 1013.24 1013.39 1013.53 1013.64 1013.73 1013.78 1013.78 1013.71 1013.55 1013.32 1013.02 1012.68 1012.34 1012.05 1011.82 1011.69 1011.66 1011.71 1011.84 1012.02
1009.43 1009.69 1009.94 1010.23 1010.56 1010.93 1011.31 1011.65 1011.91 1012.05 1012.08 1012.01 1011.88 1011.73 1011.62 1011.59 1011.65 1011.80 1012.03 1012.28 1012.54 1012.78 1012.97 1013.12 1013.25 1013.36 1013.47 1013.58 1013.67 1013.73 1013.74 1013.67 1013.52 1013.27 1012.97 1012.63 1012.29 1011.99 1011.76 1011.61 1011.53 1011.53 1011.58
1009.34 1009.57 1009.81 1010.09 1010.43 1010.82 1011.22 1011.60 1011.90 1012.08 1012.14 1012.09 1011.97 1011.83 1011.74 1011.71 1011.79 1011.95 1012.18 1012.43 1012.67 1012.87 1013.02 1013.13 1013.21 1013.28 1013.37 1013.48 1013.61 1013.73 1013.81 1013.83 1013.77 1013.60 1013.34 1013.01 1012.65 1012.29 1011.97 1011.70 1011.50 1011.36 1011.28
1009.29 1009.50 1009.72 1009.99 1010.34 1010.75 1011.18 1011.60 1011.94 1012.17 1012.26 1012.25 1012.16 1012.06 1011.98 1011.98 1012.08 1012.25 1012.48 1012.72 1012.93 1013.10 1013.20 1013.24 1013.26 1013.29 1013.34 1013.44 1013.59 1013.75 1013.89 1013.99 1014.00 1013.90 1013.69 1013.38 1013.02 1012.62 1012.23 1011.86 1011.55 1011.30 1011.10
1009.31 1009.50 1009.71 1009.99 1010.34 1010.76 1011.22 1011.67 1012.04 1012.31 1012.44 1012.46 1012.42 1012.35 1012.31 1012.33 1012.45 1012.63 1012.86 1013.08 1013.27 1013.39 1013.44 1013.43 1013.39 1013.36 1013.37 1013.45 1013.58 1013.76 1013.94 1014.08 1014.15 1014.10 1013.94 1013.66 1013.31 1012.89 1012.46 1012.04 1011.65 1011.31 1011.02
Thickness
5785 5790 5792 5792 5793 5793 5794 5794 5795 5795 5796 5797 5797 5798 5798 5798 5797 5796 5794 5792 5791 5788 5786 5784 5783 5781 5779 5777 5776 5774 5771 5769 5767 5766 5764 5763 5761 5759 5758 5756 5755 5754 5752
5788 5790 5791 5792 5792 5792 5792 5793 5793 5793 5794 5795 5796 5796 5797 5796 5795 5794 5793 5791 5789 5787 5785 5783 5781 5780 5777 5775 5773 5772 5770 5768 5766 5765 5763 5762 5760 5758 5757 5755 5753 5752 5750
5789 5790 5790 5790 5790 5790 5791 5791 5792 5792 5792 5793 5794 5794 5794 5794 5793 5792 5791 5789 5787 5786 5784 5782 5779 5777 5776 5774 5772 5770 5768 5766 5764 5763 5762 5760 5759 5757 5756 5754 5752 5751 5749
5789 5789 5789 5789 5789 5789 5789 5790 5790 5790 5791 5791 5792 5792 5792 5791 5791 5790 5789 5788 5786 5784 5782 5780 5778 5775 5773 5772 5770 5768 5766 5765 5763 5761 5760 5759 5758 5756 5755 5753 5751 5749 5747
5788 5788 5788 5788 5787 5787 5787 5788 5788 5789 5789 5789 5789 5789 5789 5789 5788 5788 5787 5786 5784 5783 5781 5779 5776 5774 5772 5770 5769 5767 5766 5764 5762 5760 5758 5757 5756 5755 5754 5752 5750 5748 5746
5786 5787 5787 5787 5786 5786 5786 5786 5787 5788 5788 5788 5787 5787 5787 5787 5786 5785 5785 5784 5782 5781 5779 5777 5775 5773 5771 5769 5768 5766 5765 5763 5761 5759 5758 5756 5755 5754 5753 5751 5749 5747 5745
5784 5786 5786 5786 5785 5784 5784 5784 5786 5787 5787 5787 5786 5785 5785 5784 5784 5783 5783 5782 5780 5779 5777 5775 5773 5772 5770 5768 5767 5765 5764 5762 5760 5758 5757 5755 5754 5753 5751 5749 5748 5746 5744
5784 5784 5784 5784 5783 5783 5783 5783 5784 5785 5785 5785 5785 5784 5783 5782 5781 5781 5781 5780 5779 5778 5776 5774 5772 5770 5769 5768 5766 5764 5763 5762 5759 5758 5756 5755 5753 5752 5750 5748 5746 5744 5742
5783 5783 5783 5783 5782 5782 5781 5781 5782 5782 5783 5783 5782 5781 5780 5780 5780 5780 5780 5779 5778 5777 5775 5773 5771 5770 5768 5767 5765 5764 5763 5761 5758 5757 5755 5754 5753 5751 5749 5747 5745 5743 5741
5782 5782 5781 5781 5781 5780 5780 5779 5780 5780 5780 5780 5780 5780 5779 5778 5778 5778 5778 5778 5777 5775 5773 5772 5770 5769 5767 5766 5765 5763 5762 5760 5758 5756 5755 5753 5752 5751 5749 5747 5745 5743 5741
5780 5780 5780 5780 5780 5779 5779 5778 5778 5778 5778 5778 5777 5777 5777 5776 5776 5777 5777 5776 5775 5774 5772 5771 5769 5768 5767 5765 5764 5763 5761 5759 5757 5756 5754 5753 5751 5750 5748 5746 5744 5742 5740
5777 5779 5780 5780 5780 5779 5779 5778 5777 5777 5776 5776 5775 5775 5775 5775 5775 5775 5775 5775 5774 5773 5771 5770 5768 5767 5766 5764 5763 5762 5760 5758 5757 5755 5754 5752 5750 5749 5747 5745 5743 5741 5739
5779 5780 5781 5781 5780 5779 5778 5778 5776 5775 5775 5775 5775 5774 5774 5773 5773 5773 5773 5773 5772 5771 5770 5769 5767 5766 5765 5763 5762 5760 5759 5758 5756 5755 5753 5752 5750 5748 5746 5744 5742 5740 5738
5780 5780 5781 5782 5780 5779 5778 5777 5776 5775 5774 5774 5773 5773 5773 5772 5772 5772 5771 5771 5770 5770 5769 5768 5766 5765 5764 5762 5761 5760 5758 5757 5755 5754 5752 5751 5750 5748 5746 5744 5742 5740 5738
5780 5781 5782 5782 5781 5780 5779 5778 5777 5776 5775 5774 5773 5773 5773 5771 5771 5771 5770 5770 5769 5769 5768 5767 5766 5764 5763 5762 5761 5760 5758 5757 5755 5754 5752 5751 5749 5747 5746 5744 5741 5739 5737
5782 5782 5783 5783 5782 5781 5779 5778 5778 5777 5776 5775 5774 5774 5773 5772 5771 5770 5770 5769 5769 5768 5767 5767 5765 5764 5762 5762 5761 5759 5758 5756 5755 5753 5752 5751 5749 5747 5745 5743 5741 5739 5737
5785 5785 5784 5784 5783 5781 5780 5779 5778 5777 5777 5776 5775 5774 5774 5773 5772 5771 5770 5769 5769 5768 5767 5766 5765 5763 5762 5761 5759 5759 5757 5756 5755 5753 5752 5750 5748 5747 5745 5743 5740 5738 5737
5788 5786 5785 5786 5784 5782 5781 5780 5779 5779 5777 5776 5775 5775 5774 5773 5772 5771 5770 5770 5769 5768 5767 5765 5764 5762 5760 5759 5757 5757 5756 5755 5755 5754 5752 5750 5748 5747 5745 5743 5740 5738 5736
5790 5789 5786 5786 5785 5783 5782 5781 5780 5779 5778 5777 5776 5776 5775 5774 5773 5772 5771 5770 5769 5767 5766 5765 5762 5761 5758 5757 5756 5755 5755 5755 5754 5753 5752 5751 5749 5746 5744 5742 5740 5738 5736
5793 5791 5789 5787 5786 5785 5783 5781 5779 5779 5778 5778 5777 5777 5776 5775 5774 5773 5771 5770 5768 5766 5765 5763 5761 5760 5758 5756 5756 5755 5754 5754 5754 5753 5752 5751 5749 5746 5745 5743 5740 5738 5736
5793 5791 5789 5787 5786 5785 5782 5780 5778 5777 5778 5778 5778 5778 5778 5776 5775 5773 5772 5770 5769 5766 5764 5763 5761 5759 5756 5756 5752 5750 5752 5753 5753 5753 5752 5750 5749 5747 5746 5744 5742 5739 5737
5795 5793 5791 5789 5788 5787 5785 5783 5781 5780 5779 5779 5779 5779 5778 5777 5776 5774 5772 5771 5769 5766 5764 5762 5761 5757 5755 5754 5751 5746 5743 5746 5750 5752 5751 5749 5749 5747 5746 5745 5742 5740 5737
5797 5796 5795 5792 5790 5788 5787 5784 5782 5780 5778 5777 5777 5777 5778 5777 5776 5775 5773 5771 5769 5767 5764 5763 5761 5758 5754 5753 5753 5748 5741 5738 5742 5747 5748 5749 5748 5746 5746 5744 5742 5740 5737
5802 5801 5798 5794 5792 5790 5788 5785 5782 5778 5775 5776 5776 5777 5777 5777 5776 5775 5773 5772 5769 5768 5765 5764 5762 5759 5756 5752 5751 5750 5748 5745 5739 5738 5744 5746 5746 5745 5744 5744 5742 5740 5737
5806 5803 5800 5796 5793 5792 5790 5787 5783 5780 5779 5778 5777 5776 5776 5776 5776 5775 5773 5772 5770 5768 5766 5764 5762 5760 5758 5754 5751 5749 5747 5744 5742 5738 5736 5739 5742 5744 5743 5742 5741 5739 5737
5808 5805 5801 5797 5794 5792 5790 5788 5785 5782 5779 5777 5776 5775 5775 5775 5775 5774 5773 5772 5770 5769 5767 5765 5763 5761 5759 5756 5754 5751 5748 5744 5741 5738 5735 5735 5736 5740 5741 5741 5739 5738 5736